Tracking 31027 objects as of 19-Jul-2025
HD Live streaming from Space Station
objects crossing your sky now

TJS-11

Track TJS-11 now!


NORAD ID: 59020
Int'l Code: 2024-037A
Perigee: 35,779.7 km
Apogee: 35,804.7 km
Inclination: 4.7 °
Period: 1,436.0 minutes
Semi major axis: 42163 km
RCS: Unknown
Launch date: February 23, 2024
Source: People's Republic of China (PRC)
Launch site: Wenchang Satellite Launch Center (WSC)
Your satellite tracking list
FENGYUN 1C DEB
Track 1 satellite(s)




NASA's NSSDC Master Catalog

Two Line Element Set (TLE):
1 59020U 24037A   25199.77074725 -.00000359  00000-0  00000+0 0  9994
2 59020   4.6757 323.5582 0002967 194.8929 175.9573  1.00277195  5263
Source of the keplerian elements: AFSPC